Location: Dennehotso
(36.8461°N, 109.8435°W)
Time: 23:34:49
(UTC+00:00)

Envisat - Pass Details

Date: 07 March 2021
Orbit: 764 x 766 km, 98.1° (Epoch: 12 April)

Event Time Altitude Azimuth Distance (km) Brightness Sun altitude
Rises 12:32:54 0° 18° (NNE) 3,237 6.6 -14.5°
Reaches altitude 10° 12:35:17 10° 24° (NNE) 2,307 5.9 -14.0°
Maximum altitude 12:40:13 50° 99° (E) 967 4.0 -13.1°
Drops below altitude 10° 12:45:07 10° 175° (S) 2,291 5.5 -12.1°
Sets 12:47:28 0° 181° (S) 3,212 6.2 -11.6°
